Location: Bailey Inglish Elementary School
(33.5826°N, 96.1780°W)
Time: 14:37:10
(UTC+00:00)

ISS - Pass Details

Date: 24 June 2024
Orbit: 410 x 424 km, 51.6° (Epoch: 16 July)

Event Time Altitude Azimuth Distance (km) Brightness Sun altitude
Exits shadow 08:43:24 31° 68° (ENE) 753 -2.0 -24.5°
Drops below altitude 10° 08:45:20 10° 54° (NE) 1,486 0.0 -24.2°
Sets 08:47:28 0° 51° (NE) 2,355 1.3 -24.0°
